Weather History for Patuxent River, MD

Change the Weather History Date:

Saturday, May 4, 2013

  Actual Average Record
Temperature  
Mean Temperature 56 °F -  
Max Temperature 66 °F 67 °F 84 °F (2012)
Min Temperature 48 °F 49 °F 38 °F (1986)
Degree Days  
Heating Degree Days 9    
Growing Degree Days 6 (Base 50)    
Moisture  
Dew Point 42 °F    
Average Humidity 66    
Maximum Humidity 82    
Minimum Humidity 42    
Precipitation  
Precipitation 0.00 in - - ()
Sea Level Pressure  
Sea Level Pressure 30.26 in    
Wind  
Wind Speed 10 mph (NE)    
Max Wind Speed 16 mph    
Max Gust Speed 22 mph    
Visibility 10 miles    
Events      
Averages and records for this station are not official NWS values.
T = Trace of Precipitation, MM = Missing Value Source: NWS Daily Summary

Daily Weather History Graph

Daily Weather History Graph

Search for Another Location

Airport:

Trip Planner

Search our weather history database for the weather conditions in past years. The results will help you decide how hot, cold, wet, or windy it might be!

Date:

Astronomy

May. 04, 2013 Rise Set
Actual Time 6:05 AM EDT 8:00 PM EDT
Civil Twilight 5:36 AM EDT 8:28 PM EDT
Nautical Twilight 5:01 AM EDT 9:03 PM EDT
Astronomical Twilight 4:24 AM EDT 9:41 PM EDT
Moon 2:58 AM EDT (5/4) 2:59 PM EDT (5/4)
Length of Visible Light 14h 52m
Length of Day
13h 54m
Waning Crescent, 27% of the Moon is Illuminated
May 4
Waning Crescent
May 9
New
May 18
First Quarter
May 25
Full
May 31
Last Quarter

Hourly Weather History & Observations

Time (EDT) Temp. Dew Point Humidity Pressure Visibility Wind Dir Wind Speed Gust Speed Precip Events Conditions
12:52 AM 48.0 °F 39.9 °F 74% 30.32 in 10.0 mi NE 11.5 mph - N/A   Clear
1:52 AM 48.0 °F 41.0 °F 77% 30.29 in 10.0 mi NE 10.4 mph - N/A   Clear
2:52 AM 48.9 °F 42.1 °F 77% 30.27 in 10.0 mi NE 6.9 mph - N/A   Mostly Cloudy
3:43 AM 48.2 °F 42.8 °F 82% 30.26 in 10.0 mi NNE 11.5 mph - N/A   Overcast
3:52 AM 48.9 °F 43.0 °F 80% 30.27 in 10.0 mi NNE 11.5 mph - N/A   Overcast
4:52 AM 48.9 °F 43.0 °F 80% 30.27 in 10.0 mi NNE 11.5 mph - N/A   Overcast
5:13 AM 48.2 °F 42.8 °F 82% 30.27 in 10.0 mi NNE 10.4 mph - N/A   Mostly Cloudy
5:28 AM 50.0 °F 42.8 °F 76% 30.27 in 10.0 mi NNE 10.4 mph - N/A   Overcast
5:49 AM 48.2 °F 42.8 °F 82% 30.27 in 10.0 mi NNE 11.5 mph - N/A   Overcast
5:52 AM 48.9 °F 43.0 °F 80% 30.28 in 10.0 mi NE 10.4 mph - N/A   Overcast
6:13 AM 50.0 °F 42.8 °F 76% 30.28 in 10.0 mi NE 11.5 mph - N/A   Mostly Cloudy
6:52 AM 50.0 °F 43.0 °F 77% 30.29 in 10.0 mi NNE 10.4 mph - N/A   Mostly Cloudy
7:52 AM 50.0 °F 42.1 °F 74% 30.29 in 10.0 mi NE 12.7 mph - N/A   Mostly Cloudy
8:52 AM 52.0 °F 43.0 °F 71% 30.29 in 10.0 mi NE 8.1 mph - N/A   Mostly Cloudy
9:52 AM 54.0 °F 44.1 °F 69% 30.28 in 10.0 mi NNE 9.2 mph - N/A   Mostly Cloudy
10:52 AM 57.9 °F 46.0 °F 65% 30.28 in 10.0 mi NNE 6.9 mph - N/A   Mostly Cloudy
11:52 AM 57.9 °F 45.0 °F 62% 30.27 in 10.0 mi NE 8.1 mph - N/A   Mostly Cloudy
12:52 PM 60.1 °F 46.0 °F 60% 30.25 in 10.0 mi Variable 4.6 mph - N/A   Mostly Cloudy
1:52 PM 63.0 °F 48.0 °F 58% 30.24 in 10.0 mi Variable 5.8 mph - N/A   Mostly Cloudy
2:52 PM 64.0 °F 48.0 °F 56% 30.22 in 10.0 mi ENE 9.2 mph - N/A   Mostly Cloudy
3:52 PM 64.9 °F 45.0 °F 48% 30.20 in 10.0 mi East 12.7 mph - N/A   Mostly Cloudy
4:52 PM 63.0 °F 44.1 °F 50% 30.20 in 10.0 mi East 10.4 mph - N/A   Mostly Cloudy
5:52 PM 62.1 °F 41.0 °F 46% 30.20 in 10.0 mi East 16.1 mph 21.9 mph N/A   Mostly Cloudy
6:52 PM 59.0 °F 36.0 °F 42% 30.21 in 10.0 mi ENE 15.0 mph - N/A   Clear
7:52 PM 55.9 °F 33.1 °F 42% 30.21 in 10.0 mi ENE 11.5 mph - N/A   Clear
8:52 PM 54.0 °F 33.1 °F 45% 30.22 in 10.0 mi ENE 13.8 mph - N/A   Clear
9:52 PM 51.1 °F 36.0 °F 56% 30.23 in 10.0 mi ENE 5.8 mph - N/A   Clear
10:52 PM 51.1 °F 34.0 °F 52% 30.24 in 10.0 mi ENE 13.8 mph 20.7 mph N/A   Clear
11:52 PM 48.9 °F 37.9 °F 66% 30.23 in 10.0 mi ENE 10.4 mph - N/A   Clear